This demonstration page uses our WeatherBlox Daily Observations layout. Learn more.

Left ArrowRight Arrow

41.12389, -100.76542

Hourly Observations for August 8, 2019

Temp ( °F °C ) Dew Point ( °F °C ) Humidity (%) Winds ( mph kmh ) Pressure ( in mb ) Visibility ( mi km ) Precip ( " mm )
12:53 am 00:53 Clear 71 21.7 67 19.4 87 87 Calm 29.88 1012 10 16 0.00 0.00
1:53 am 01:53 Clear 71 21.7 67 19.4 87 87 Calm 29.86 1011 10 16 0.00 0.00
2:53 am 02:53 Clear 71 21.7 68 20 90 90 NW 3 6 29.87 1012 10 16 0.00 0.00
3:53 am 03:53 Mostly Cloudy 71 21.7 68 20 90 90 Calm 29.91 1013 10 16 0.00 0.00
4:53 am 04:53 Mostly Clear 71 21.7 68 20 90 90 E 3 6 29.90 1013 10 16 0.00 0.00
5:53 am 05:53 Clear 69 20.6 66 18.9 90 90 SE 5 7 29.90 1012 10 16 0.00 0.00
6:53 am 06:53 Sunny 70 21.1 66 18.9 87 87 Calm 29.90 1013 10 16 0.00 0.00
7:53 am 07:53 Sunny 71 21.7 67 19.4 87 87 Calm 29.91 1013 10 16 0.00 0.00
8:53 am 08:53 Sunny 74 23.3 67 19.4 79 79 WSW 5 7 29.92 1013 10 16 0.00 0.00
9:53 am 09:53 Sunny 78 25.6 68 20 71 71 Calm 29.93 1013 10 16 0.00 0.00
11:53 am 11:53 Partly Cloudy 84 28.9 70 21.1 63 63 SSE 8 13 29.93 1014 10 16 0.00 0.00
12:04 pm 12:04 Mostly Cloudy 84 28.9 71 21.7 65 65 SE 7 11 29.83 1010 10 16 0.00 0.00
12:40 pm 12:40 Partly Cloudy 85 29.4 71 21.7 63 63 SSE 9 15 29.82 1010 10 16 0.00 0.00
12:53 pm 12:53 Partly Cloudy 86 30 71 21.7 61 61 SSE 9 15 29.93 1013 10 16 0.00 0.00
1:53 pm 13:53 Mostly Sunny 85 29.4 71 21.7 63 63 S 8 13 29.91 1013 10 16 0.00 0.00
2:20 pm 14:20 Partly Cloudy with Nearby Thunderstorms 88 31.1 72 22.2 59 59 SE 10 17 29.77 1008 10 16 0.00 0.00
2:40 pm 14:40 Mostly Cloudy 84 28.9 71 21.7 65 65 SE 15 24 29.79 1009 10 16 0.00 0.00
2:53 pm 14:53 Cloudy 81 27.2 71 21.7 72 72 S 14 22 29.89 1012 7 11 0.00 0.00
2:58 pm 14:58 Cloudy with Heavy Rain 75 23.9 68 20 79 79 S 30 48 29.82 1010 1 2 0.10 2.54
3:06 pm 15:06 Cloudy with Heavy Rain 75 23.9 62 16.7 64 64 SSW 13 20 29.83 1010 1 1 0.46 11.68
3:11 pm 15:11 Cloudy with Nearby Thunderstorms 73 22.8 62 16.7 69 69 SSE 9 15 29.84 1011 1 2 0.65 16.51
3:24 pm 15:24 Cloudy with Strong Thunderstorms 69 20.6 61 16.1 76 76 NNE 22 35 29.88 1012 2 3 1.02 25.91
3:32 pm 15:32 Cloudy with Strong Thunderstorms 69 20.6 63 17.2 81 81 N 25 41 29.89 1012 2 3 1.16 29.46
3:42 pm 15:42 Cloudy with Strong Thunderstorms 68 20 63 17.2 84 84 NNE 22 35 29.90 1013 2 2 1.42 36.07
3:53 pm 15:53 Cloudy with Strong Thunderstorms 66 18.9 62 16.7 87 87 NE 8 13 29.93 1014 2 3 1.67 42.42
4:17 pm 16:17 Cloudy with Thunderstorms 67 19.4 63 17.2 87 87 S 7 11 29.92 1013 6 10 0.33 8.38
4:53 pm 16:53 Mostly Cloudy with Thunderstorms 68 20 65 18.3 90 90 WSW 7 11 29.97 1015 10 16 0.38 9.65
5:20 pm 17:20 Mostly Cloudy with Light Rain 67 19.4 64 17.8 91 91 SSW 9 15 29.92 1013 10 16 0.03 0.76
5:53 pm 17:53 Mostly Cloudy 69 20.6 64 17.8 84 84 S 5 7 29.93 1014 10 16 0.03 0.76
6:53 pm 18:53 Mostly Sunny 70 21.1 66 18.9 87 87 ESE 6 9 29.93 1014 10 16 0.01 0.25
7:32 pm 19:32 Mostly Cloudy with Nearby Thunderstorms 70 21.1 67 19.4 90 90 Calm 29.90 1013 10 16 0.00 0.00
7:50 pm 19:50 Mostly Cloudy with Thunderstorms 70 21 66 19 88 88 Calm 29.91 1013 10 16 0.00 0.00
7:53 pm 19:53 Mostly Cloudy with Thunderstorms 69 20.6 67 19.4 93 93 Calm 29.96 1015 10 16 0.00 0.00
8:10 pm 20:10 Mostly Cloudy with Light Rain 69 20.6 67 19.4 93 93 VRB 3 6 29.91 1013 10 16 0.00 0.00
8:53 pm 20:53 Mostly Clear 69 20.6 66 18.9 90 90 N 3 6 29.94 1014 10 16 0.01 0.25
9:53 pm 21:53 Mostly Clear 70 21.1 65 18.3 84 84 WSW 7 11 29.93 1013 10 16 0.01 0.25
10:53 pm 22:53 Clear 68 20 65 18.3 90 90 ESE 6 9 29.94 1014 10 16 0.00 0.00
11:53 pm 23:53 Clear 68 20 65 18.3 90 90 E 6 9 29.94 1014 10 16 0.00 0.00

Powered by AerisWeather